Simultaneous Nadir Overpasses (SNOs) Predictions

Prediction of SNOs between GOES-16 and AQUA Satellite Orbit:

Table of predicted SNOs for the next 14.0 days since TLE Epoch: 11/9/2019
Index Date Time (GOES-16) GOES-16 Lat,Lon AQUA Lat,Lon Distance(km) Time Diff (sec)
1 11/10/2019 06:38:10 -0.00, -75.20 0.01, -75.36 18.48 80
2 11/12/2019 06:23:19 -0.00, -75.21 -0.63, -72.41 318.64 80
3 11/12/2019 18:44:42 0.00, -75.21 -0.52, -77.59 271.36 80
4 11/14/2019 18:35:11 0.00, -75.22 0.13, -74.64 65.96 80
5 11/16/2019 18:23:00 0.00, -75.23 0.78, -71.69 403.46 80
6 11/17/2019 06:44:16 0.00, -75.24 0.33, -76.84 182.59 80
7 11/19/2019 06:29:24 0.00, -75.25 -0.26, -73.88 155.34 80
8 11/19/2019 18:50:48 -0.00, -75.25 -0.81, -79.08 434.49 80
9 11/21/2019 06:17:13 0.00, -75.27 -0.92, -70.93 493.75 80
10 11/21/2019 18:38:36 0.00, -75.28 -0.21, -76.11 95.90 80




NCC Satellite Simultaneous Nadir Overpasses (SNOs) Prediction Service
